Orbital Elements at Epoch 2459000.5 (2020-May-31.0) TDB
Reference: JPL 19 (heliocentric ecliptic J2000)
Element | Value | Uncertainty (1-sigma) | Units |
e | .1800266458138726 | 4.5779e-08 | |
a | 3.118464546915067 | 2.0664e-08 | au |
q | 2.55705783444447 | 1.4368e-07 | au |
i | 1.063325415071487 | 5.5897e-06 | deg |
node | 318.1406879122592 | 0.0002669 | deg |
peri | 70.87776706894348 | 0.0002676 | deg |
M | 327.2476997549583 | 1.5266e-05 | deg |
tp | 2459183.499098046808 (2020-Nov-29.99909805) | 8.4761e-05 | TDB |
period | 2011.451861516941 5.51 | 1.9993e-05 5.474e-08 | d yr |
n | .1789752003950545 | 1.779e-09 | deg/d |
Q | 3.679871259385665 | 2.4384e-08 | au |
|
| | Orbit Determination Parameters
Additional Information
|